Location: Eaton
(41.3139°N, 82.0207°W)
Time: 13:25:33
(UTC+00:00)

Cosmos 1953 Rocket - Pass Details

Date: 17 June 2021
Orbit: 604 x 634 km, 82.5° (Epoch: 30 July)

Event Time Altitude Azimuth Distance (km) Brightness Sun altitude
Exits shadow 06:46:59 64° 262° (W) 683 3.5 -22.8°
Maximum altitude 06:47:11 65° 279° (W) 678 3.6 -22.8°
Drops below altitude 10° 06:51:33 10° 2° (N) 1,988 7.1 -22.5°
Sets 06:53:49 0° 5° (N) 2,904 8.3 -22.4°
